Freeport, IL

2:51 AM CST on February 20, 2018 (GMT -0600)
Albertus

Weather History for KFEP - September, 2014

Change the Weather History Date:

Friday, September 12, 2014

  Actual Average Record
Temperature  
Mean Temperature 44 °F -  
Max Temperature 50 °F 77 °F 90 °F (1978)
Min Temperature 37 °F 51 °F 37 °F (2007)
Degree Days  
Heating Degree Days 22    
Moisture  
Dew Point 42 °F    
Average Humidity 91    
Maximum Humidity 96    
Minimum Humidity 78    
Precipitation  
Precipitation 0.11 in - - ()
Sea Level Pressure  
Sea Level Pressure 30.35 in    
Wind  
Wind Speed 3 mph (North)    
Max Wind Speed 12 mph    
Max Gust Speed 17 mph    
Visibility 10 miles    
Events Rain    
Averages and records for this station are not official NWS values.
T = Trace of Precipitation, MM = Missing Value Source: NWS Daily Summary

Daily Weather History Graph

Daily Weather History Graph

Search for Another Location

Airport or City:

Trip Planner

Search our weather history database for the weather conditions in past years. The results will help you decide how hot, cold, wet, or windy it might be!

Date:

Astronomy

Sep. 12, 2014 Rise Set
Actual Time 6:35 AM CDT 7:13 PM CDT
Civil Twilight 6:06 AM CDT 7:41 PM CDT
Nautical Twilight 5:33 AM CDT 8:14 PM CDT
Astronomical Twilight 4:58 AM CDT 8:49 PM CDT
Moon 9:28 PM CDT (9/12) 10:43 AM CDT (9/12)
Length of Visible Light 13h 34m
Length of Day
12h 38m
Waning Gibbous, 83% of the Moon is Illuminated
Sep 12
Waning Gibbous
Sep 15
Last Quarter
Sep 24
New
Oct 1
First Quarter
Oct 8
Full

Hourly Weather History & Observations

Time (CDT) Temp. Windchill Dew Point Humidity Pressure Visibility Wind Dir Wind Speed Gust Speed Precip Events Conditions
12:15 AM 45.5 °F - 43.9 °F 94% 30.33 in 10.0 mi Calm Calm - N/A   Mostly Cloudy
12:35 AM 46.4 °F - 44.8 °F 94% 30.34 in 10.0 mi Calm Calm - N/A   Overcast
12:55 AM 46.4 °F - 44.8 °F 94% 30.33 in 10.0 mi Calm Calm - N/A   Overcast
1:15 AM 46.0 °F - 44.6 °F 95% 30.34 in 10.0 mi Calm Calm - N/A   Scattered Clouds
1:35 AM 45.5 °F - 44.2 °F 95% 30.34 in 10.0 mi Calm Calm - N/A   Scattered Clouds
1:55 AM 45.5 °F - 44.4 °F 96% 30.35 in 10.0 mi Calm Calm - N/A   Mostly Cloudy
2:15 AM 44.8 °F 43.3 °F 43.7 °F 96% 30.35 in 10.0 mi WNW 3.5 mph - N/A   Scattered Clouds
2:35 AM 45.1 °F - 43.9 °F 95% 30.34 in 10.0 mi Calm Calm - N/A   Mostly Cloudy
2:55 AM 46.0 °F - 44.6 °F 95% 30.34 in 10.0 mi Calm Calm - N/A   Overcast
3:15 AM 46.4 °F - 44.8 °F 94% 30.34 in 10.0 mi Calm Calm - N/A   Overcast
3:35 AM 46.0 °F - 44.6 °F 95% 30.32 in 10.0 mi Calm Calm - N/A   Mostly Cloudy
3:55 AM 46.4 °F - 44.6 °F 93% 30.31 in 10.0 mi Calm Calm - N/A   Scattered Clouds
4:15 AM 46.0 °F - 44.6 °F 95% 30.33 in 10.0 mi Calm Calm - N/A   Mostly Cloudy
4:35 AM 46.0 °F 44.8 °F 44.6 °F 95% 30.32 in 10.0 mi North 3.5 mph - N/A   Scattered Clouds
4:55 AM 45.9 °F 42.9 °F 44.1 °F 93% 30.33 in 10.0 mi North 5.8 mph - N/A   Scattered Clouds
5:15 AM 45.5 °F - 43.7 °F 93% 30.34 in 10.0 mi Calm Calm - N/A   Mostly Cloudy
5:35 AM 46.0 °F - 44.4 °F 94% 30.34 in 10.0 mi Calm Calm - N/A   Overcast
5:55 AM 45.7 °F 44.4 °F 43.9 °F 93% 30.35 in 10.0 mi North 3.5 mph - N/A   Overcast
6:15 AM 46.0 °F 44.8 °F 44.1 °F 93% 30.36 in 10.0 mi North 3.5 mph - N/A   Overcast
6:35 AM 46.0 °F 43.9 °F 44.2 °F 93% 30.35 in 10.0 mi NNE 4.6 mph - N/A   Overcast
6:55 AM 46.0 °F 43.9 °F 44.1 °F 93% 30.36 in 10.0 mi North 4.6 mph - N/A   Overcast
7:15 AM 46.4 °F 43.5 °F 44.1 °F 92% 30.37 in 10.0 mi North 5.8 mph - N/A   Overcast
7:35 AM 46.4 °F 41.9 °F 43.9 °F 91% 30.37 in 10.0 mi NNE 9.2 mph - N/A   Overcast
7:55 AM 46.4 °F 43.5 °F 43.9 °F 91% 30.39 in 10.0 mi NNE 5.8 mph - N/A   Overcast
8:15 AM 46.4 °F 43.5 °F 43.9 °F 91% 30.39 in 10.0 mi NNE 5.8 mph - N/A   Overcast
8:35 AM 46.9 °F - 44.2 °F 90% 30.38 in 10.0 mi NNE 5.8 mph - N/A   Overcast
8:55 AM 47.3 °F - 43.5 °F 87% 30.40 in 10.0 mi North 4.6 mph - N/A   Overcast
9:15 AM 47.3 °F - 43.2 °F 86% 30.39 in 10.0 mi NNE 6.9 mph - N/A   Overcast
9:35 AM 46.4 °F 42.9 °F 42.1 °F 85% 30.39 in 10.0 mi NNE 6.9 mph - N/A   Overcast
9:55 AM 46.4 °F 42.4 °F 42.3 °F 85% 30.39 in 10.0 mi NNE 8.1 mph - N/A   Overcast
10:15 AM 47.3 °F - 42.4 °F 83% 30.38 in 10.0 mi NE 9.2 mph - N/A   Overcast
10:35 AM 47.3 °F - 42.1 °F 82% 30.38 in 10.0 mi NNE 8.1 mph - N/A   Overcast
10:55 AM 50.0 °F - 43.7 °F 79% 30.39 in 10.0 mi NNE 9.2 mph - N/A   Overcast
11:15 AM 50.0 °F - 43.5 °F 78% 30.38 in 10.0 mi North 8.1 mph - N/A   Overcast
11:35 AM 49.6 °F - 43.5 °F 79% 30.37 in 10.0 mi NNE 8.1 mph - N/A   Mostly Cloudy
11:55 AM 49.8 °F - 45.0 °F 83% 30.37 in 10.0 mi North 9.2 mph - N/A Rain Light Rain
12:15 PM 48.7 °F - 43.9 °F 83% 30.36 in 10.0 mi NNE 8.1 mph - N/A   Overcast
12:35 PM 47.8 °F - 43.0 °F 83% 30.36 in 10.0 mi NNE 10.4 mph - N/A   Overcast
12:55 PM 49.6 °F - 44.2 °F 82% 30.36 in 10.0 mi North 9.2 mph - N/A   Overcast
1:15 PM 47.8 °F - 43.0 °F 83% 30.36 in 10.0 mi North 11.5 mph - N/A Rain Light Rain
1:35 PM 45.5 °F 40.8 °F 41.9 °F 87% 30.36 in 10.0 mi North 9.2 mph - N/A Rain Light Rain
1:55 PM 45.1 °F 40.3 °F 41.7 °F 88% 30.36 in 10.0 mi North 9.2 mph - 0.01 in Rain Light Rain
2:15 PM 44.8 °F 41.0 °F 41.7 °F 89% 30.37 in 10.0 mi North 6.9 mph - 0.01 in Rain Light Rain
2:35 PM 44.6 °F 40.7 °F 41.9 °F 90% 30.37 in 7.0 mi North 6.9 mph - 0.02 in Rain Light Rain
2:55 PM 44.8 °F 41.0 °F 42.1 °F 90% 30.36 in 7.0 mi North 6.9 mph - 0.03 in Rain Light Rain
3:15 PM 44.6 °F 40.7 °F 41.9 °F 90% 30.36 in 10.0 mi North 6.9 mph - 0.01 in Rain Light Rain
3:35 PM 44.6 °F 41.4 °F 42.3 °F 91% 30.36 in 7.0 mi North 5.8 mph - 0.02 in Rain Light Rain
3:55 PM 43.9 °F 39.9 °F 41.2 °F 90% 30.36 in 10.0 mi North 6.9 mph - 0.04 in Rain Light Rain
4:15 PM 44.8 °F 42.4 °F 42.8 °F 93% 30.35 in 10.0 mi NNW 4.6 mph - 0.01 in Rain Light Rain
4:35 PM 44.8 °F 41.0 °F 42.8 °F 93% 30.34 in 10.0 mi North 6.9 mph - 0.01 in   Light Drizzle
4:55 PM 44.8 °F 41.6 °F 42.8 °F 93% 30.34 in 10.0 mi North 5.8 mph - 0.01 in   Overcast
5:15 PM 43.7 °F 42.1 °F 41.0 °F 90% 30.34 in 10.0 mi North 3.5 mph - N/A Rain Light Rain
5:35 PM 43.7 °F 42.1 °F 41.2 °F 91% 30.34 in 10.0 mi North 3.5 mph - N/A Rain Light Rain
5:55 PM 43.7 °F 41.1 °F 41.2 °F 91% 30.34 in 7.0 mi North 4.6 mph - N/A   Light Drizzle
6:15 PM 43.7 °F 42.1 °F 41.5 °F 92% 30.34 in 10.0 mi North 3.5 mph - N/A   Overcast
6:35 PM 43.7 °F 42.1 °F 41.5 °F 92% 30.34 in 10.0 mi NNW 3.5 mph - N/A   Drizzle
6:55 PM 43.7 °F 41.1 °F 41.5 °F 92% 30.34 in 10.0 mi NNW 4.6 mph - 0.01 in Rain Light Rain
7:15 PM 43.7 °F 41.1 °F 41.9 °F 93% 30.35 in 10.0 mi NW 4.6 mph - N/A Rain Light Rain
7:35 PM 43.7 °F 38.1 °F 41.9 °F 93% 30.35 in 10.0 mi NW 10.4 mph 17.3 mph N/A Rain Rain
7:55 PM 42.8 °F 39.3 °F 41.2 °F 94% 30.35 in 10.0 mi NNW 5.8 mph - 0.01 in   Light Drizzle
8:15 PM 42.8 °F 41.1 °F 41.2 °F 94% 30.35 in 10.0 mi North 3.5 mph - N/A   Overcast
8:35 PM 42.4 °F - 40.8 °F 94% 30.35 in 10.0 mi Calm Calm - N/A   Mostly Cloudy
8:55 PM 42.3 °F - 40.6 °F 94% 30.34 in 10.0 mi Calm Calm - N/A   Clear
9:15 PM 41.2 °F 37.3 °F 39.6 °F 94% 30.35 in 10.0 mi NNW 5.8 mph - N/A   Clear
9:35 PM 39.7 °F - 38.3 °F 95% 30.36 in 10.0 mi Calm Calm - N/A   Clear
9:55 PM 39.7 °F - 38.7 °F 96% 30.36 in 10.0 mi Calm Calm - N/A   Clear
10:15 PM 39.7 °F 37.6 °F 38.7 °F 96% 30.36 in 10.0 mi WNW 3.5 mph - N/A   Clear
10:35 PM 39.0 °F - 37.9 °F 96% 30.35 in 10.0 mi Calm Calm - N/A   Clear
10:55 PM 39.7 °F - 38.7 °F 96% 30.35 in 10.0 mi Calm Calm - N/A   Clear
11:15 PM 38.5 °F - 37.4 °F 96% 30.35 in 10.0 mi Calm Calm - N/A   Clear
11:35 PM 37.9 °F 35.5 °F 36.9 °F 96% 30.35 in 10.0 mi West 3.5 mph - N/A   Clear
11:55 PM 38.5 °F 34.1 °F 37.4 °F 96% 30.35 in 10.0 mi West 5.8 mph - N/A   Clear